Вернуться в каталог

ONEWEB-0416

АктивенСвязьPO
NORAD 51625·PAYLOAD·🇬🇧 United Kingdom

Запущен Feb 10, 2022 с Guiana Space Centre

Loading…

Ближайшие Пролёты (ближайшие 24 часа)

TLE

СвежийSource: CelesTrak SupGP

Эпоха: Sep 14, 2026, 08:53 UTC

1 51625C 22012D   26257.37030510 -.00002159  00000+0 -61929-2 0  2571
2 51625  87.8894  18.5239 0001374 107.5701 300.7114 13.10371787    14

Отслеживайте ONEWEB-0416 в реальном времени с AllMySat

Download on the App Store